Regional Weather Roundup
Issued by NWS

Home | Current Version | Previous Version | Graphics & Text | Print | Product List | Glossary On
Versions: 1 2 3 4 5 6 7 8 9 10 11 12 13 14 15 16 17 18 19 20 21 22 23 24 25 26 27 28 29 30 31 32 33 34 35 36 37 38 39 40 41 42 43 44 45 46 47 48 49 50
000
ASUS45 KCYS 030010
RWRWY

WYOMING REGIONAL WEATHER ROUNDUP
NATIONAL WEATHER SERVICE CHEYENNE WY
600 PM MDT TUE JUN 02 2015

NOTE:  "FAIR" INDICATES FEW OR NO CLOUDS BELOW 12,000 FEET
WITH NO SIGNIFICANT WEATHER AND/OR OBSTRUCTIONS TO VISIBILITY.

WYZ001-030100-
...YELLOWSTONE NATIONAL PARK...

CITY           SKY/WX    TMP DP  RH WIND       PRES   REMARKS
LK YELLOWSTONE   N/A     57  32  38 VRB6G16   30.09F
6HR MIN TEMP:  45; 6HR MAX TEMP:  60;

W YELLOWSTONE  NOT AVBL

$$
WYZ002>013-054>058-071-098>099-030100-
...NORTHERN WYOMING...

CITY           SKY/WX    TMP DP  RH WIND       PRES   REMARKS
JACKSON        MOSUNNY   64  37  36 SW8       30.02R
CODY           PTSUNNY   72  39  30 W8        29.89F
GREYBULL       PTSUNNY   71  46  40 NW10      29.86R
6HR MIN TEMP:  68; 6HR MAX TEMP:  83;

WORLAND        LGT RAIN  72  46  39 CALM      29.85R
6HR MIN TEMP:  67; 6HR MAX TEMP:  81; 6HR PCP: TRACE;

SHERIDAN       CLOUDY    56  48  74 N20G29    29.93R THUNDER
6HR MIN TEMP:  55; 6HR MAX TEMP:  76; 6HR PCP: TRACE;

BUFFALO        CLOUDY    69  51  52 W13       29.93R
6HR MIN TEMP:  69; 6HR MAX TEMP:  76;

GILLETTE       MOSUNNY   73  51  46 NE10      29.85S
6HR MIN TEMP:  71; 6HR MAX TEMP:  78;

HULETT         FAIR      73  50  43 NE9       29.87F
NEWCASTLE      FAIR      75  48  38 NW6       29.87S

$$
WYZ014>020-022>026-101>103-030100-
...CENTRAL WYOMING...

CITY           SKY/WX    TMP DP  RH WIND       PRES   REMARKS
BIG PINEY      MOSUNNY   70  34  26 W21       30.05R
6HR MIN TEMP:  64; 6HR MAX TEMP:  73; 6HR PCP: TRACE;

PINEDALE       PTSUNNY   64  34  32 W12G21    30.05S
DUBOIS         FAIR      61  37  41 NW9       30.02F
LANDER         MOSUNNY   73  44  35 N3        29.89S
6HR MIN TEMP:  69; 6HR MAX TEMP:  76; 6HR PCP: TRACE;

RIVERTON       MOSUNNY   74  42  31 NW13      29.91S
6HR MIN TEMP:  70; 6HR MAX TEMP:  78; 6HR PCP: TRACE;

CASPER         MOSUNNY   77  40  26 SW9       29.87S
6HR MIN TEMP:  73; 6HR MAX TEMP:  82; 6HR PCP: TRACE;

DOUGLAS        MOSUNNY   79  49  34 MISG      29.87R
6HR MIN TEMP:  60; 6HR MAX TEMP:  80; 6HR PCP:  0.17;


$$
WYZ021-027>030-104>119-030100-
...SOUTHERN WYOMING...

CITY           SKY/WX    TMP DP  RH WIND       PRES   REMARKS
EVANSTON       MOSUNNY   69  33  26 W22G29    30.07R
6HR MIN TEMP:  68; 6HR MAX TEMP:  72;

KEMMERER       SUNNY     68  32  26 W21G29    30.07F
FORT BRIDGER   SUNNY     73  30  20 NW18G31   30.07F
ROCK SPRINGS   MOSUNNY   74  27  17 W21       30.01F
6HR MIN TEMP:  68; 6HR MAX TEMP:  76; 6HR PCP: TRACE;

DIXON          FAIR      78  27  15 SW13      30.03S
RAWLINS        MOSUNNY   73  25  16 SW15G23   30.00S
6HR MIN TEMP:  73; 6HR MAX TEMP:  78;

SARATOGA       FAIR      73  25  16 SW17G25   30.04F
LARAMIE        SUNNY     74  27  17 SW17      30.03S
6HR MIN TEMP:  71; 6HR MAX TEMP:  77;

CHEYENNE       MOSUNNY   79  36  21 SW3       29.94S
6HR MIN TEMP:  76; 6HR MAX TEMP:  83;

TORRINGTON     MOSUNNY   76  48  37 N17G30    29.81S
6HR MIN TEMP:  73; 6HR MAX TEMP:  88; 6HR PCP: TRACE;

PINE BLUFFS    FAIR      82  41  23 SW7       29.88R

$$


USA.gov is the U.S. government's official web portal to all federal, state and local government web resources and services.